BEIDOU-3 M16 (43648 NORAD) Tracking and Keplerian Element Data

This shows tracking and keplerian element data for the satellite.

Feedback or suggestion? Click here.




ElementValue
Catalog43648
NameBEIDOU-3 M16
Epoch Orbit53
Epoch Day317.20049458
Epoch Year2018
RAAN35.6719
Inclination54.9969
Eccentricity0.0116455
Argument of Perigee178.1769
Mean Anonmoly105.7561
Mean Motion1.82894288
Decay Rate-9.9E-07
L11 43648U 18078B 18317.20049458 -.00000099 00000-0 10000-3 0 9994
L22 43648 54.9969 35.6719 0116455 178.1769 105.7561 1.82894288 534

Live tracking and technical data element details for BEIDOU-3 M16 (NORAD 43648). BEIDOU-3 M16 can be tracked NOW for your location showing map with azimuth and elevation plus other details from your city location.

Track the satellite on the map from your city or location and see movement details for azimuth, elevation, latitude, longitude, range, height, and movement on the map or in text.







IsCatalogInMostPopularTable: catalog: 43648, numindb: 16
Update: records affected: 1



GetName: 43648 BEIDOU-3 M16

Hit Count: updated at: Thu, 15 Nov 2018 04:31:38 GMT